Dewpoint
42 44 46 47 50 53 60 64 64 62 62 61 62 63 63 63 63 63 63 63 62 61
41 43 43 45 48 52 54 62 64 63 62 61 61 62 63 62 62 62 62 62 62 61
40 41 43 44 45 47 50 54 63 63 62 62 60 62 62 62 62 61 61 62 62 62
39 41 42 43 43 45 47 50 57 63 63 61 61 61 61 61 61 61 61 61 61 60
38 39 40 42 42 44 44 48 51 59 62 61 60 60 59 59 59 56 57 58 58 57
35 37 38 40 41 42 42 44 48 54 56 61 61 60 60 60 59 58 57 57 59 59
33 36 37 38 40 41 41 42 44 47 52 54 54 59 60 59 59 58 58 58 58 58
32 34 36 37 39 40 40 40 41 44 47 51 55 56 58 60 60 59 58 58 59 59
30 32 34 36 37 37 38 39 40 42 44 47 49 45 47 54 59 60 61 60 60 60
28 30 33 35 36 37 37 38 40 40 43 44 49 41 41 44 58 60 59 59 60 60
28 29 31 34 35 36 37 38 38 40 41 43 44 38 38 37 52 59 60 60 60 60
29 29 31 33 35 36 36 37 37 38 39 40 41 38 37 38 48 58 60 60 60 59
29 29 30 33 35 36 35 36 36 36 37 37 38 37 36 37 42 49 58 59 60 48
28 29 30 32 35 36 36 36 36 36 36 36 36 37 36 36 38 39 41 55 58 60
Lifted_Index
3 2 1 -1 -1 -2 -2 -3 -2 -2 -2 -1 -1 0 1 1 1 1 2 2 3 3
4 3 2 0 -1 -1 -2 -2 -2 -2 -2 -1 -1 0 1 1 1 2 2 2 2 3
6 5 3 1 0 -1 -1 -2 -2 -2 -1 -1 -1 -0 1 1 1 2 2 2 3 3
8 6 4 3 2 0 -0 -1 -1 -1 -1 -0 -0 -0 1 1 1 2 2 3 3 3
10 8 5 4 3 2 1 -0 -1 -1 -0 -0 0 0 0 1 1 2 2 3 3 4
11 9 7 6 5 4 1 0 -1 -1 -0 0 1 1 1 1 1 1 1 2 3 3
12 11 9 8 7 5 3 1 -0 -1 -0 1 1 2 2 1 1 1 0 0 1 2
13 12 11 10 9 8 5 2 1 -0 0 1 2 2 2 2 1 1 0 -0 0 1
13 13 12 11 10 9 7 4 2 1 0 1 2 2 2 2 1 1 0 0 0 0
14 13 12 12 11 9 8 6 3 2 1 1 1 2 2 2 2 1 1 0 0 0
14 13 13 12 12 10 9 7 5 4 2 1 1 1 1 2 2 2 1 1 1 1
14 14 13 13 13 12 10 9 7 6 5 3 2 1 1 1 1 1 1 1 1 1
15 14 13 13 13 13 12 10 9 8 6 5 4 2 0 -1 -0 0 0 1 1 1
15 14 13 13 13 13 13 11 10 9 7 6 5 3 1 -1 -1 -1 -0 1 1 1